Regional Weather Roundup
Issued by NWS

Home | Current Version | Previous Version | Text Only | Print | Product List | Glossary On
Versions: 1 2 3 4 5 6 7 8 9 10 11 12 13 14 15 16 17 18 19 20 21 22 23 24 25 26 27 28 29 30 31 32 33 34 35 36 37 38 39 40 41 42 43 44 45 46 47 48 49 50
000
ASUS43 KDTX 270801
RWRMI
MICHIGAN HOURLY REGIONAL WEATHER ROUNDUP
NATIONAL WEATHER SERVICE DETROIT/PONTIAC MI
400 AM EDT TUE JUN 27 2017

NOTE: "FAIR" INDICATES FEW OR NO CLOUDS BELOW 12,000 FEET WITH NO
SIGNIFICANT WEATHER AND/OR OBSTRUCTION TO VISIBILITY.

MIZ047>049-052>055-059>063-066>070-074>076-081>083-270900-
SOUTHEAST LOWER MICHIGAN

CITY           SKY/WX    TMP DP  RH WIND       PRES   REMARKS
ADRIAN         CLEAR     50  45  83 W3        30.04S
ALMA           CLOUDY    52  50  92 W10       30.03S
ANN ARBOR      PTCLDY    49  46  90 SW7       30.01S
BAD AXE        CLOUDY    52  49  89 NW5       29.96R
CARO           CLOUDY    54  48  81 NW7       29.97R
DETROIT CITY   PTCLDY    53  46  77 W7        29.99R
DETROIT        PTCLDY    53  46  77 W10       30.01R
FLINT          CLOUDY    51  47  86 W10       30.00R
GROSSE ILE     CLEAR     52  46  79 W9G16     30.00S
HILLSDALE      PTCLDY    48  45  87 W7        30.03S
HOWELL         CLOUDY    52  46  82 W7        30.01S

CITY           SKY/WX    TMP DP  RH WIND       PRES   REMARKS
JACKSON        MOCLDY    51  46  83 W7        30.03S
LAMBERTVILLE   CLEAR     53  46  77 W3        30.03R
LANSING        PTCLDY    53  47  79 NW7       30.04R
LAPEER         CLOUDY    53  47  79 W6        29.98S
MASON          MOCLDY    52  48  87 W7        30.03S
MONROE         CLEAR     50  46  86 W5        30.01S
MT. CLEMENS    MOCLDY    54  47  78 W9G20     29.96R
PONTIAC        MOCLDY    52  48  86 W12       29.98S
PORT HOPE        N/A     55  48  77 NW13      29.93S
PORT HURON     PTCLDY    50  46  87 CALM      29.96S
TRI CITIES     CLOUDY    53  50  89 W8        30.00S
MIDLAND        CLOUDY    52  47  82 W5        30.00R
TROY           CLEAR     54  46  75 W6        30.01R
SAGINAW HB     CLOUDY    54  43  66 NW9       29.99R
$$
MIZ043>046-050>051-056>058-064>065-071>073-077>080-270900-
SOUTHWEST LOWER MICHIGAN

CITY           SKY/WX    TMP DP  RH WIND       PRES   REMARKS
BATTLE CREEK   PTCLDY    51  49  92 NW6       30.05S
BENTON HARBOR  MOCLDY    58  49  72 VRB6      30.07S
BIG RAPIDS     CLEAR     47  45  93 CALM      30.03R
COLDWATER      PTCLDY    49  46  92 W5        30.04F
FREMONT        FAIR      46  46 100 CALM      30.05R
HOLLAND        CLEAR     54  47  77 CALM      30.07R
GRAND RAPIDS   CLEAR     52  50  93 NW7       30.05R
IONIA          FAIR      51  48  92 NW3       30.04R
KALAMAZOO      CLEAR     52  47  83 W6        30.06R
LUDINGTON      PTCLDY    54  52  94 W3        30.03S
MARSHALL       MOCLDY    50  48  92 CALM      30.04S
MOUNT PLEASANT CLOUDY    52  50  92 W6        30.01S
MUSKEGON       CLEAR     48  46  93 CALM      30.06S
SOUTH HAVEN    PTCLDY    57  52  85 N5        30.07R
$$
MIZ016>042-270900-
NORTHERN LOWER MICHIGAN

CITY           SKY/WX    TMP DP  RH WIND       PRES   REMARKS
ALPENA         PTCLDY    49  47  93 W8        29.94S
BEAVER ISLAND  FOG       45  45  99 CALM      29.99R VSB 1
BELLAIRE       FOG       46  45  95 CALM      30.00S VSB 1/2
CADILLAC       CLEAR     45  44  97 W5        30.01S
CHARLEVOIX     CLEAR     51  50  97 SW5       30.01F
FRANKFORT      CLEAR     45  43  93 CALM      30.01S
GAYLORD        CLEAR     49  45  86 W6        29.98S
GRAYLING       PTCLDY    49  47  96 W7        29.99S
HARBOR SPRINGS CLEAR     49  49 100 CALM      29.98S
HOUGHTON LAKE  MOCLDY    50  47  89 NW8       30.00R
MANISTEE       FOG       43  43 100 E3        30.03S VSB 1
OSCODA         CLOUDY    51  49  92 W8        29.93S
PELLSTON       CLEAR     46  43  89 CALM      29.97F
ROGERS CITY    CLEAR     48  46  91 W6        29.95F
TRAVERSE CITY  CLEAR     48  46  93 CALM      29.99F
$$
MIZ007>008-015-270900-
EASTERN UPPER MICHIGAN

CITY           SKY/WX    TMP DP  RH WIND       PRES   REMARKS
KINROSS        CLEAR     43  42  97 W8        29.95S
MACKINAC ISLAN CLEAR     48  48 100 W8        29.96S
NEWBERRY       CLEAR     43  42  97 W3        29.96S
S. S. MARIE    CLEAR     48  45  89 W7        29.93F
MUNISING         N/A     44  43  96 S8        29.96F
$$
MIZ004>006-011>014-085-270900-
CENTRAL UPPER MICHIGAN

CITY           SKY/WX    TMP DP  RH WIND       PRES   REMARKS
MANISTIQUE     CLEAR     43  40  89 CALM      29.98R
ESCANABA       CLEAR     46  45  96 W6        29.99S
MENOMINEE      CLEAR     49  47  93 W3        30.02S
SAWYER-GWINN   PTCLDY    44  42  93 CALM      29.98S
$$
MIZ001>003-009>011-084-270900-
WESTERN UPPER MICHIGAN

CITY           SKY/WX    TMP DP  RH WIND       PRES   REMARKS
IRON MOUNTAIN  CLOUDY    48  43  82 NW5       30.00S
HOUGHTON       CLEAR     49  44  83 NW9       29.97S
COPPER HARBOR    N/A     54  45  71 W7        29.95S
IRONWOOD       CLOUDY    54  47  77 SW5       30.03F
$$

ABBREVIATIONS USED IN REMARKS
   TC - TEMPERATURE IN CELSIUS
  WCI - WIND CHILL INDEX
   HX - HEAT INDEX
  VSB - VISIBILITY





USA.gov is the U.S. government's official web portal to all federal, state and local government web resources and services.